User: anonymous   Login
Location: Newark
(54.2500°N, 9.1833°E)
Time: 13:55:04
(UTC+00:00)
Language:

Tiros 1 - Orbit

View from above orbital plane
View from above orbital plane
View from above satellite
View from above satellite

Ground track
Ground track

The orbit data is extracted from the following two-line orbital elements,

1    29U 60002B   19345.11112969 -.00000140  00000-0  10239-4 0  9996
2    29  48.3790 122.1650 0023891 143.3861 216.8689 14.74332546190728
Epoch (UTC): 11 December 2019 02:40:01
Eccentricity: 0.0023891
inclination: 48.3790°
perigee height: 630 km
apogee height: 664 km
right ascension of ascending node: 122.1650°
argument of perigee: 143.3861°
revolutions per day: 14.74332546
mean anomaly at epoch: 216.8689°
orbit number at epoch: 19072

The dashed part of the orbit path shows where the satellite is in the earth's shadow,  

DLR